Time,TemperatureF,DewpointF,PressureIn,WindDirection,WindDirectionDegrees,WindSpeedMPH,WindSpeedGustMPH,Humidity,HourlyPrecipIn,Conditions,Clouds,dailyrainin,SolarRadiationWatts/m^2,SoftwareType,DateUTC
2013-01-29 00:12:00,39.1,38.0,29.98,West,279,5.0,-999.0,95,-99.99,,,0.14,0,weatherlink.com 1.10,2013-01-29 05:12:00,
2013-01-29 00:27:00,39.1,38.0,29.99,West,269,6.0,-999.0,95,-99.99,,,0.14,0,weatherlink.com 1.10,2013-01-29 05:27:00,
2013-01-29 00:42:00,38.9,38.0,29.99,West,278,5.0,-999.0,95,-99.99,,,0.14,0,weatherlink.com 1.10,2013-01-29 05:42:00,
2013-01-29 00:57:00,38.7,37.0,29.99,WNW,284,2.0,-999.0,95,-99.99,,,0.00,0,weatherlink.com 1.10,2013-01-29 05:57:00,
2013-01-29 01:12:00,38.5,37.0,29.99,WNW,282,2.0,-999.0,95,-99.99,,,0.00,0,weatherlink.com 1.10,2013-01-29 06:12:00,
2013-01-29 01:27:00,38.2,37.0,30.00,NNW,339,2.0,-999.0,95,-99.99,,,0.00,0,weatherlink.com 1.10,2013-01-29 06:27:00,
2013-01-29 01:42:00,37.3,36.0,30.01,NW,309,2.0,-999.0,94,-99.99,,,0.00,0,weatherlink.com 1.10,2013-01-29 06:42:00,
2013-01-29 01:57:00,36.5,37.0,30.01,NNW,339,4.0,-999.0,100,-99.99,,,0.00,0,weatherlink.com 1.10,2013-01-29 06:57:00,
2013-01-29 02:12:00,35.6,34.0,30.02,NW,316,2.0,-999.0,94,-99.99,,,0.00,0,weatherlink.com 1.10,2013-01-29 07:12:00,
2013-01-29 02:27:00,34.7,34.0,30.03,NNW,341,4.0,-999.0,95,-99.99,,,0.00,0,weatherlink.com 1.10,2013-01-29 07:27:00,
2013-01-29 02:42:00,33.8,32.0,30.03,NNW,346,6.0,-999.0,94,-99.99,,,0.00,0,weatherlink.com 1.10,2013-01-29 07:42:00,
2013-01-29 02:57:00,33.4,32.0,30.04,North,351,3.0,-999.0,94,-99.99,,,0.00,0,weatherlink.com 1.10,2013-01-29 07:57:00,
2013-01-29 03:12:00,32.8,32.0,30.03,North,350,7.0,-999.0,95,-99.99,,,0.00,0,weatherlink.com 1.10,2013-01-29 08:12:00,
2013-01-29 03:27:00,32.5,31.0,30.04,NNW,340,0.0,-999.0,95,-99.99,,,0.00,0,weatherlink.com 1.10,2013-01-29 08:27:00,
2013-01-29 03:42:00,32.4,31.0,30.04,NNW,340,0.0,-999.0,95,-99.99,,,0.00,0,weatherlink.com 1.10,2013-01-29 08:42:00,
2013-01-29 03:57:00,32.4,31.0,30.05,NNW,340,1.0,-999.0,95,-99.99,,,0.00,0,weatherlink.com 1.10,2013-01-29 08:57:00,
2013-01-29 04:12:00,32.3,31.0,30.04,NNW,340,0.0,-999.0,95,-99.99,,,0.00,0,weatherlink.com 1.10,2013-01-29 09:12:00,
2013-01-29 04:27:00,32.3,31.0,30.05,NNW,340,0.0,-999.0,95,-99.99,,,0.00,0,weatherlink.com 1.10,2013-01-29 09:27:00,
2013-01-29 04:42:00,32.3,31.0,30.04,NNW,340,0.0,-999.0,95,-99.99,,,0.00,0,weatherlink.com 1.10,2013-01-29 09:42:00,
2013-01-29 04:57:00,32.2,31.0,30.04,NNW,340,0.0,-999.0,95,-99.99,,,0.00,0,weatherlink.com 1.10,2013-01-29 09:57:00,
2013-01-29 05:13:00,32.2,31.0,30.06,NNW,340,0.0,-999.0,95,-99.99,,,0.00,0,weatherlink.com 1.10,2013-01-29 10:13:00,
2013-01-29 05:28:00,32.3,31.0,30.06,NNW,340,0.0,-999.0,95,-99.99,,,0.00,0,weatherlink.com 1.10,2013-01-29 10:28:00,
2013-01-29 05:43:00,32.3,31.0,30.07,NNW,340,0.0,-999.0,95,-99.99,,,0.00,0,weatherlink.com 1.10,2013-01-29 10:43:00,
2013-01-29 05:58:00,32.4,31.0,30.07,NNW,340,0.0,-999.0,95,-99.99,,,0.00,0,weatherlink.com 1.10,2013-01-29 10:58:00,
2013-01-29 06:13:00,32.4,31.0,30.07,NNW,340,0.0,-999.0,95,-99.99,,,0.00,0,weatherlink.com 1.10,2013-01-29 11:13:00,
2013-01-29 06:28:00,32.4,31.0,30.07,NNW,340,0.0,-999.0,95,-99.99,,,0.00,0,weatherlink.com 1.10,2013-01-29 11:28:00,
2013-01-29 06:43:00,32.3,31.0,30.07,NNW,340,0.0,-999.0,95,-99.99,,,0.00,0,weatherlink.com 1.10,2013-01-29 11:43:00,
2013-01-29 06:58:00,32.3,31.0,30.06,NNW,340,1.0,-999.0,95,-99.99,,,0.00,0,weatherlink.com 1.10,2013-01-29 11:58:00,
2013-01-29 07:13:00,32.5,31.0,30.07,NNW,340,1.0,-999.0,95,-99.99,,,0.00,0,weatherlink.com 1.10,2013-01-29 12:13:00,
2013-01-29 07:28:00,32.5,31.0,30.06,NNW,340,1.0,-999.0,95,-99.99,,,0.00,0,weatherlink.com 1.10,2013-01-29 12:28:00,
2013-01-29 07:43:00,32.6,31.0,30.06,NNW,340,0.0,-999.0,95,-99.99,,,0.01,0,weatherlink.com 1.10,2013-01-29 12:43:00,
2013-01-29 07:58:00,32.6,31.0,30.06,NE,49,4.0,-999.0,95,-99.99,,,0.01,0,weatherlink.com 1.10,2013-01-29 12:58:00,
2013-01-29 08:13:00,32.8,32.0,30.07,ENE,71,0.0,-999.0,95,-99.99,,,0.01,0,weatherlink.com 1.10,2013-01-29 13:13:00,
2013-01-29 08:28:00,32.9,32.0,30.07,ENE,71,0.0,-999.0,95,-99.99,,,0.01,0,weatherlink.com 1.10,2013-01-29 13:28:00,
2013-01-29 08:43:00,33.3,32.0,30.07,ENE,72,4.0,-999.0,96,-99.99,,,0.01,0,weatherlink.com 1.10,2013-01-29 13:43:00,
2013-01-29 08:58:00,33.7,33.0,30.06,ENE,77,0.0,-999.0,96,-99.99,,,0.01,40,weatherlink.com 1.10,2013-01-29 13:58:00,
2013-01-29 09:13:00,34.3,33.0,30.07,SE,128,4.0,-999.0,96,-99.99,,,0.01,83,weatherlink.com 1.10,2013-01-29 14:13:00,
2013-01-29 09:28:00,34.7,34.0,30.06,East,98,4.0,-999.0,96,-99.99,,,0.01,121,weatherlink.com 1.10,2013-01-29 14:28:00,
2013-01-29 09:43:00,35.0,34.0,30.06,ESE,107,4.0,-999.0,96,-99.99,,,0.01,81,weatherlink.com 1.10,2013-01-29 14:43:00,
2013-01-29 09:58:00,35.2,34.0,30.05,ESE,107,2.0,-999.0,96,-99.99,,,0.01,79,weatherlink.com 1.10,2013-01-29 14:58:00,
2013-01-29 10:13:00,36.0,35.0,30.04,ESE,107,2.0,-999.0,96,-99.99,,,0.01,181,weatherlink.com 1.10,2013-01-29 15:13:00,
2013-01-29 10:28:00,36.7,36.0,30.03,ENE,76,7.0,-999.0,96,-99.99,,,0.01,90,weatherlink.com 1.10,2013-01-29 15:28:00,
2013-01-29 10:43:00,37.1,36.0,30.03,SE,130,5.0,-999.0,96,-99.99,,,0.01,47,weatherlink.com 1.10,2013-01-29 15:43:00,
2013-01-29 10:58:00,37.7,37.0,30.02,SE,128,4.0,-999.0,96,-99.99,,,0.01,88,weatherlink.com 1.10,2013-01-29 15:58:00,
2013-01-29 11:13:00,38.3,37.0,30.01,ESE,108,8.0,-999.0,96,-99.99,,,0.01,39,weatherlink.com 1.10,2013-01-29 16:13:00,
2013-01-29 11:28:00,38.8,38.0,30.01,East,88,2.0,-999.0,96,-99.99,,,0.01,37,weatherlink.com 1.10,2013-01-29 16:28:00,
2013-01-29 11:43:00,39.2,38.0,29.98,East,96,4.0,-999.0,96,-99.99,,,0.01,44,weatherlink.com 1.10,2013-01-29 16:43:00,
2013-01-29 11:58:00,39.4,38.0,29.96,East,94,9.0,-999.0,96,-99.99,,,0.01,79,weatherlink.com 1.10,2013-01-29 16:58:00,
2013-01-29 12:13:00,39.8,39.0,29.97,ESE,117,5.0,-999.0,96,-99.99,,,0.01,30,weatherlink.com 1.10,2013-01-29 17:13:00,
2013-01-29 12:28:00,40.2,39.0,29.96,East,100,6.0,-999.0,96,-99.99,,,0.01,12,weatherlink.com 1.10,2013-01-29 17:28:00,
2013-01-29 12:43:00,40.4,39.0,29.95,ESE,107,3.0,-999.0,95,-99.99,,,0.01,25,weatherlink.com 1.10,2013-01-29 17:43:00,
2013-01-29 12:58:00,40.7,39.0,29.97,ESE,115,6.0,-999.0,95,-99.99,,,0.01,0,weatherlink.com 1.10,2013-01-29 17:58:00,
2013-01-29 13:13:00,40.7,39.0,29.96,ESE,107,2.0,-999.0,95,-99.99,,,0.04,0,weatherlink.com 1.10,2013-01-29 18:13:00,
2013-01-29 13:28:00,40.6,39.0,29.93,East,92,6.0,-999.0,95,-99.99,,,0.07,0,weatherlink.com 1.10,2013-01-29 18:28:00,
2013-01-29 13:43:00,40.6,39.0,29.86,ESE,123,14.0,-999.0,95,-99.99,,,0.10,12,weatherlink.com 1.10,2013-01-29 18:43:00,
2013-01-29 13:58:00,41.8,41.0,29.88,ESE,114,9.0,-999.0,95,-99.99,,,0.10,23,weatherlink.com 1.10,2013-01-29 18:58:00,
2013-01-29 14:13:00,43.2,42.0,29.89,SE,138,7.0,-999.0,95,-99.99,,,0.10,7,weatherlink.com 1.10,2013-01-29 19:13:00,
2013-01-29 14:28:00,43.5,42.0,29.89,SE,138,13.0,-999.0,95,-99.99,,,0.10,32,weatherlink.com 1.10,2013-01-29 19:28:00,
2013-01-29 14:43:00,43.4,42.0,29.89,ESE,103,8.0,-999.0,95,-99.99,,,0.10,0,weatherlink.com 1.10,2013-01-29 19:43:00,
2013-01-29 14:58:00,43.7,42.0,29.88,ESE,105,8.0,-999.0,94,-99.99,,,0.10,19,weatherlink.com 1.10,2013-01-29 19:58:00,
2013-01-29 15:13:00,43.9,43.0,29.87,SE,132,10.0,-999.0,95,-99.99,,,0.10,0,weatherlink.com 1.10,2013-01-29 20:13:00,
2013-01-29 15:28:00,44.3,43.0,29.88,SE,146,11.0,-999.0,95,-99.99,,,0.10,0,weatherlink.com 1.10,2013-01-29 20:28:00,
2013-01-29 15:43:00,44.6,43.0,29.87,ESE,103,10.0,-999.0,94,-99.99,,,0.10,0,weatherlink.com 1.10,2013-01-29 20:43:00,
2013-01-29 15:58:00,44.7,43.0,29.88,SE,130,9.0,-999.0,94,-99.99,,,0.10,0,weatherlink.com 1.10,2013-01-29 20:58:00,
2013-01-29 16:13:00,44.2,42.0,29.90,East,100,0.0,-999.0,93,-99.99,,,0.12,0,weatherlink.com 1.10,2013-01-29 21:13:00,
2013-01-29 16:28:00,44.0,42.0,29.88,SE,128,12.0,-999.0,94,-99.99,,,0.15,0,weatherlink.com 1.10,2013-01-29 21:28:00,
2013-01-29 16:43:00,44.4,43.0,29.86,ESE,106,8.0,-999.0,94,-99.99,,,0.18,0,weatherlink.com 1.10,2013-01-29 21:43:00,
2013-01-29 16:58:00,44.4,43.0,29.87,SE,124,10.0,-999.0,95,-99.99,,,0.20,0,weatherlink.com 1.10,2013-01-29 21:58:00,
2013-01-29 17:14:00,44.4,43.0,29.85,East,94,7.0,-999.0,95,-99.99,,,0.21,0,weatherlink.com 1.10,2013-01-29 22:14:00,
2013-01-29 17:29:00,45.0,44.0,29.87,SE,128,0.0,-999.0,95,-99.99,,,0.21,0,weatherlink.com 1.10,2013-01-29 22:29:00,
2013-01-29 17:44:00,44.6,43.0,29.86,ESE,107,5.0,-999.0,95,-99.99,,,0.21,0,weatherlink.com 1.10,2013-01-29 22:44:00,
2013-01-29 17:59:00,45.6,44.0,29.86,ENE,78,10.0,-999.0,95,-99.99,,,0.21,0,weatherlink.com 1.10,2013-01-29 22:59:00,
2013-01-29 18:14:00,46.1,45.0,29.86,East,100,7.0,-999.0,95,-99.99,,,0.21,0,weatherlink.com 1.10,2013-01-29 23:14:00,
2013-01-29 18:29:00,46.8,46.0,29.86,ESE,121,13.0,-999.0,95,-99.99,,,0.21,0,weatherlink.com 1.10,2013-01-29 23:29:00,
2013-01-29 18:44:00,47.2,46.0,29.85,ESE,108,6.0,-999.0,94,-99.99,,,0.21,0,weatherlink.com 1.10,2013-01-29 23:44:00,
2013-01-29 18:59:00,47.4,46.0,29.84,ESE,121,6.0,-999.0,94,-99.99,,,0.21,0,weatherlink.com 1.10,2013-01-29 23:59:00,
2013-01-29 19:14:00,47.7,46.0,29.84,East,88,8.0,-999.0,94,-99.99,,,0.21,0,weatherlink.com 1.10,2013-01-30 00:14:00,
2013-01-29 19:29:00,47.8,46.0,29.84,SE,132,7.0,-999.0,94,-99.99,,,0.21,0,weatherlink.com 1.10,2013-01-30 00:29:00,
2013-01-29 19:44:00,48.6,47.0,29.84,ESE,123,11.0,-999.0,94,-99.99,,,0.21,0,weatherlink.com 1.10,2013-01-30 00:44:00,
2013-01-29 19:59:00,49.1,47.0,29.83,ESE,122,12.0,-999.0,93,-99.99,,,0.21,0,weatherlink.com 1.10,2013-01-30 00:59:00,
2013-01-29 20:14:00,49.5,48.0,29.82,ESE,119,15.0,-999.0,93,-99.99,,,0.21,0,weatherlink.com 1.10,2013-01-30 01:14:00,
2013-01-29 20:29:00,49.8,48.0,29.83,SE,137,11.0,-999.0,92,-99.99,,,0.21,0,weatherlink.com 1.10,2013-01-30 01:29:00,
2013-01-29 20:44:00,50.3,48.0,29.83,SE,129,6.0,-999.0,92,-99.99,,,0.21,0,weatherlink.com 1.10,2013-01-30 01:44:00,
2013-01-29 20:59:00,50.2,48.0,29.83,SE,125,11.0,-999.0,92,-99.99,,,0.22,0,weatherlink.com 1.10,2013-01-30 01:59:00,
2013-01-29 21:14:00,50.4,48.0,29.83,ESE,113,12.0,-999.0,92,-99.99,,,0.22,0,weatherlink.com 1.10,2013-01-30 02:14:00,
2013-01-29 21:29:00,50.6,48.0,29.82,ESE,121,11.0,-999.0,92,-99.99,,,0.22,0,weatherlink.com 1.10,2013-01-30 02:29:00,
2013-01-29 21:44:00,50.8,49.0,29.83,ESE,119,16.0,-999.0,92,-99.99,,,0.22,0,weatherlink.com 1.10,2013-01-30 02:44:00,
2013-01-29 21:59:00,51.0,49.0,29.83,SE,132,14.0,-999.0,92,-99.99,,,0.22,0,weatherlink.com 1.10,2013-01-30 02:59:00,
2013-01-29 22:14:00,50.9,48.0,29.82,SE,137,10.0,-999.0,91,-99.99,,,0.23,0,weatherlink.com 1.10,2013-01-30 03:14:00,
2013-01-29 22:29:00,50.9,49.0,29.82,ESE,116,15.0,-999.0,92,-99.99,,,0.23,0,weatherlink.com 1.10,2013-01-30 03:29:00,
2013-01-29 22:44:00,50.8,49.0,29.82,SE,136,15.0,-999.0,93,-99.99,,,0.24,0,weatherlink.com 1.10,2013-01-30 03:44:00,
2013-01-29 22:59:00,50.9,49.0,29.81,ESE,122,10.0,-999.0,92,-99.99,,,0.24,0,weatherlink.com 1.10,2013-01-30 03:59:00,
2013-01-29 23:14:00,50.8,49.0,29.81,ESE,115,12.0,-999.0,92,-99.99,,,0.24,0,weatherlink.com 1.10,2013-01-30 04:14:00,
2013-01-29 23:29:00,50.6,48.0,29.80,ESE,112,14.0,-999.0,92,-99.99,,,0.24,0,weatherlink.com 1.10,2013-01-30 04:29:00,
2013-01-29 23:44:00,50.8,49.0,29.80,ESE,103,8.0,-999.0,92,-99.99,,,0.24,0,weatherlink.com 1.10,2013-01-30 04:44:00,
2013-01-29 23:59:00,50.9,49.0,29.80,East,84,10.0,-999.0,92,-99.99,,,0.24,0,weatherlink.com 1.10,2013-01-30 04:59:00,